Time,TemperatureF,DewpointF,PressureIn,WindDirection,WindDirectionDegrees,WindSpeedMPH,WindSpeedGustMPH,Humidity,HourlyPrecipIn,Conditions,Clouds,dailyrainin,SoftwareType,DateUTC
2013-03-18 00:02:00,64.8,16.0,29.96,NW,321,7.0,19.0,15,0.00,,,0.00,meteohub,2013-03-18 06:02:00,
2013-03-18 00:07:00,64.8,16.0,29.96,WNW,302,12.0,19.0,15,0.00,,,0.00,meteohub,2013-03-18 06:07:00,
2013-03-18 00:12:00,64.6,15.8,29.96,NW,304,14.0,19.0,15,0.00,,,0.00,meteohub,2013-03-18 06:12:00,
2013-03-18 00:17:00,64.6,15.8,29.97,NNW,331,11.0,20.0,15,0.00,,,0.00,meteohub,2013-03-18 06:17:00,
2013-03-18 00:22:00,64.2,15.6,29.97,NW,317,12.0,20.0,15,0.00,,,0.00,meteohub,2013-03-18 06:22:00,
2013-03-18 00:27:00,64.2,17.1,29.97,WNW,297,8.0,20.0,16,0.00,,,0.00,meteohub,2013-03-18 06:27:00,
2013-03-18 00:32:00,64.0,16.9,29.97,West,281,7.0,20.0,16,0.00,,,0.00,meteohub,2013-03-18 06:32:00,
2013-03-18 00:37:00,63.9,16.7,29.97,NW,320,12.0,21.0,16,0.00,,,0.00,meteohub,2013-03-18 06:37:00,
2013-03-18 00:42:00,63.9,16.7,29.97,NW,323,12.0,21.0,16,0.00,,,0.00,meteohub,2013-03-18 06:42:00,
2013-03-18 00:47:00,63.9,16.7,29.98,WNW,302,9.0,21.0,16,0.00,,,0.00,meteohub,2013-03-18 06:47:00,
2013-03-18 00:53:00,63.7,16.7,29.98,WNW,291,12.0,20.0,16,0.00,,,0.00,meteohub,2013-03-18 06:53:00,
2013-03-18 00:58:00,63.3,16.3,29.98,WNW,293,18.0,20.0,16,0.00,,,0.00,meteohub,2013-03-18 06:58:00,
2013-03-18 01:03:00,63.3,16.3,29.98,West,281,15.0,20.0,16,0.00,,,0.00,meteohub,2013-03-18 07:03:00,
2013-03-18 01:08:00,63.3,16.3,29.98,WNW,301,10.0,19.0,16,0.00,,,0.00,meteohub,2013-03-18 07:08:00,
2013-03-18 01:13:00,63.1,16.2,29.98,NW,307,10.0,21.0,16,0.00,,,0.00,meteohub,2013-03-18 07:13:00,
2013-03-18 01:18:00,63.1,16.2,29.98,WNW,295,19.0,21.0,16,0.00,,,0.00,meteohub,2013-03-18 07:18:00,
2013-03-18 01:24:00,63.3,16.3,29.98,WNW,296,16.0,22.0,16,0.00,,,0.00,meteohub,2013-03-18 07:24:00,
2013-03-18 01:30:00,63.3,14.9,29.99,WNW,294,14.0,23.0,15,0.00,,,0.00,meteohub,2013-03-18 07:30:00,
2013-03-18 01:35:00,63.1,14.7,29.99,NW,309,11.0,23.0,15,0.00,,,0.00,meteohub,2013-03-18 07:35:00,
2013-03-18 01:40:00,63.1,16.2,29.99,WNW,298,15.0,23.0,16,0.00,,,0.00,meteohub,2013-03-18 07:40:00,
2013-03-18 01:45:00,62.8,16.0,29.99,West,267,16.0,21.0,16,0.00,,,0.00,meteohub,2013-03-18 07:45:00,
2013-03-18 01:50:00,62.8,16.0,29.99,WNW,286,8.0,18.0,16,0.00,,,0.00,meteohub,2013-03-18 07:50:00,
2013-03-18 01:55:00,62.4,15.6,29.99,WNW,289,13.0,17.0,16,0.00,,,0.00,meteohub,2013-03-18 07:55:00,
2013-03-18 02:01:00,62.2,15.4,29.99,WNW,290,11.0,16.0,16,0.00,,,0.00,meteohub,2013-03-18 08:01:00,
2013-03-18 02:06:00,62.1,15.3,29.99,WNW,296,8.0,16.0,16,0.00,,,0.00,meteohub,2013-03-18 08:06:00,
2013-03-18 02:12:00,61.9,15.3,29.99,WNW,296,7.0,16.0,16,0.00,,,0.00,meteohub,2013-03-18 08:12:00,
2013-03-18 02:17:00,61.5,14.9,29.99,West,269,8.0,16.0,16,0.00,,,0.00,meteohub,2013-03-18 08:17:00,
2013-03-18 02:22:00,61.3,14.7,29.99,West,265,8.0,14.0,16,0.00,,,0.00,meteohub,2013-03-18 08:22:00,
2013-03-18 02:27:00,60.8,15.6,29.99,WNW,287,6.0,14.0,17,0.00,,,0.00,meteohub,2013-03-18 08:27:00,
2013-03-18 02:32:00,60.4,15.4,29.99,West,279,12.0,14.0,17,0.00,,,0.00,meteohub,2013-03-18 08:32:00,
2013-03-18 02:37:00,60.1,15.1,29.99,West,272,10.0,13.0,17,0.00,,,0.00,meteohub,2013-03-18 08:37:00,
2013-03-18 02:43:00,60.1,16.3,29.99,WSW,258,11.0,15.0,18,0.00,,,0.00,meteohub,2013-03-18 08:43:00,
2013-03-18 02:49:00,59.5,16.0,29.99,West,272,11.0,15.0,18,0.00,,,0.00,meteohub,2013-03-18 08:49:00,
2013-03-18 02:54:00,59.4,15.8,29.99,West,265,7.0,15.0,18,0.00,,,0.00,meteohub,2013-03-18 08:54:00,
2013-03-18 02:59:00,59.0,16.7,29.99,WSW,257,10.0,14.0,19,0.00,,,0.00,meteohub,2013-03-18 08:59:00,
2013-03-18 03:04:00,58.6,16.5,30.00,WSW,252,11.0,14.0,19,0.00,,,0.00,meteohub,2013-03-18 09:04:00,
2013-03-18 03:09:00,58.3,16.2,29.99,WSW,257,14.0,14.0,19,0.00,,,0.00,meteohub,2013-03-18 09:09:00,
2013-03-18 03:14:00,57.9,15.8,29.99,West,265,9.0,14.0,19,0.00,,,0.00,meteohub,2013-03-18 09:14:00,
2013-03-18 03:19:00,57.9,15.8,30.00,WSW,246,10.0,15.0,19,0.00,,,0.00,meteohub,2013-03-18 09:19:00,
2013-03-18 03:24:00,58.5,16.3,29.99,West,273,13.0,15.0,19,0.00,,,0.00,meteohub,2013-03-18 09:24:00,
2013-03-18 03:29:00,59.0,16.7,29.99,West,270,11.0,17.0,19,0.00,,,0.00,meteohub,2013-03-18 09:29:00,
2013-03-18 03:34:00,59.2,16.9,30.00,West,261,7.0,17.0,19,0.00,,,0.00,meteohub,2013-03-18 09:34:00,
2013-03-18 03:39:00,59.0,16.7,30.00,West,271,6.0,17.0,19,0.00,,,0.00,meteohub,2013-03-18 09:39:00,
2013-03-18 03:45:00,58.6,16.5,30.00,WSW,254,7.0,16.0,19,0.00,,,0.00,meteohub,2013-03-18 09:45:00,
2013-03-18 03:50:00,58.6,16.5,30.00,West,277,7.0,14.0,19,0.00,,,0.00,meteohub,2013-03-18 09:50:00,
2013-03-18 03:55:00,58.6,16.5,29.99,West,265,6.0,15.0,19,0.00,,,0.00,meteohub,2013-03-18 09:55:00,
2013-03-18 04:00:00,58.5,16.3,29.99,West,264,7.0,15.0,19,0.00,,,0.00,meteohub,2013-03-18 10:00:00,
2013-03-18 04:05:00,58.5,16.3,29.99,WNW,283,13.0,15.0,19,0.00,,,0.00,meteohub,2013-03-18 10:05:00,
2013-03-18 04:10:00,58.8,16.7,29.99,West,261,15.0,15.0,19,0.00,,,0.00,meteohub,2013-03-18 10:10:00,
2013-03-18 04:15:00,59.5,16.0,29.99,West,280,11.0,18.0,18,0.00,,,0.00,meteohub,2013-03-18 10:15:00,
2013-03-18 04:20:00,60.1,16.3,29.99,West,281,18.0,23.0,18,0.00,,,0.00,meteohub,2013-03-18 10:20:00,
2013-03-18 04:25:00,60.4,15.4,29.99,West,264,18.0,23.0,17,0.00,,,0.00,meteohub,2013-03-18 10:25:00,
2013-03-18 04:30:00,60.8,15.6,29.99,WSW,251,15.0,24.0,17,0.00,,,0.00,meteohub,2013-03-18 10:30:00,
2013-03-18 04:35:00,61.0,15.8,29.99,WSW,258,14.0,24.0,17,0.00,,,0.00,meteohub,2013-03-18 10:35:00,
2013-03-18 04:40:00,60.4,15.4,29.99,WSW,242,10.0,24.0,17,0.00,,,0.00,meteohub,2013-03-18 10:40:00,
2013-03-18 04:45:00,59.7,16.2,29.99,West,268,7.0,23.0,18,0.00,,,0.00,meteohub,2013-03-18 10:45:00,
2013-03-18 04:50:00,57.9,15.8,29.99,WSW,250,5.0,17.0,19,0.00,,,0.00,meteohub,2013-03-18 10:50:00,
2013-03-18 04:55:00,57.0,16.3,29.99,WSW,257,11.0,15.0,20,0.00,,,0.00,meteohub,2013-03-18 10:55:00,
2013-03-18 05:01:00,56.7,16.0,29.99,WSW,246,7.0,15.0,20,0.00,,,0.00,meteohub,2013-03-18 11:01:00,
2013-03-18 05:06:00,56.1,15.6,29.99,WSW,247,9.0,15.0,20,0.00,,,0.00,meteohub,2013-03-18 11:06:00,
2013-03-18 05:11:00,55.6,16.2,29.99,WSW,242,9.0,15.0,21,0.00,,,0.00,meteohub,2013-03-18 11:11:00,
2013-03-18 05:17:00,55.8,16.3,29.99,WSW,249,9.0,16.0,21,0.00,,,0.00,meteohub,2013-03-18 11:17:00,
2013-03-18 05:22:00,56.3,15.8,29.99,SW,234,8.0,18.0,20,0.00,,,0.00,meteohub,2013-03-18 11:22:00,
2013-03-18 05:27:00,56.5,15.8,30.00,WSW,246,12.0,18.0,20,0.00,,,0.00,meteohub,2013-03-18 11:27:00,
2013-03-18 05:32:00,55.6,17.2,30.00,WSW,248,8.0,16.0,22,0.00,,,0.00,meteohub,2013-03-18 11:32:00,
2013-03-18 05:37:00,54.3,16.3,30.00,WSW,244,5.0,15.0,22,0.00,,,0.00,meteohub,2013-03-18 11:37:00,
2013-03-18 05:43:00,53.4,16.5,30.00,WSW,243,8.0,15.0,23,0.00,,,0.00,meteohub,2013-03-18 11:43:00,
2013-03-18 05:48:00,52.9,17.1,30.01,West,259,8.0,15.0,24,0.00,,,0.00,meteohub,2013-03-18 11:48:00,
2013-03-18 05:53:00,52.3,17.6,30.01,WSW,238,1.0,14.0,25,0.00,,,0.00,meteohub,2013-03-18 11:53:00,
2013-03-18 05:58:00,52.0,17.2,30.01,West,263,0.0,12.0,25,0.00,,,0.00,meteohub,2013-03-18 11:58:00,
2013-03-18 06:03:00,52.0,17.2,30.01,West,272,5.0,11.0,25,0.00,,,0.00,meteohub,2013-03-18 12:03:00,
2013-03-18 06:08:00,52.0,17.2,30.02,West,259,5.0,10.0,25,0.00,,,0.00,meteohub,2013-03-18 12:08:00,
2013-03-18 06:14:00,52.2,17.4,30.01,West,269,8.0,10.0,25,0.00,,,0.00,meteohub,2013-03-18 12:14:00,
2013-03-18 06:19:00,52.5,17.8,30.01,WSW,254,8.0,12.0,25,0.00,,,0.00,meteohub,2013-03-18 12:19:00,
2013-03-18 06:25:00,53.4,18.5,30.02,West,278,8.0,12.0,25,0.00,,,0.00,meteohub,2013-03-18 12:25:00,
2013-03-18 06:30:00,53.8,17.8,30.02,West,263,8.0,12.0,24,0.00,,,0.00,meteohub,2013-03-18 12:30:00,
2013-03-18 06:35:00,53.8,17.8,30.02,WSW,250,5.0,11.0,24,0.00,,,0.00,meteohub,2013-03-18 12:35:00,
2013-03-18 06:40:00,53.8,18.9,30.02,West,273,1.0,11.0,25,0.00,,,0.00,meteohub,2013-03-18 12:40:00,
2013-03-18 06:45:00,53.8,18.9,30.03,West,267,0.0,10.0,25,0.00,,,0.00,meteohub,2013-03-18 12:45:00,
2013-03-18 06:51:00,52.3,17.6,30.03,NE,40,3.0,9.0,25,0.00,,,0.00,meteohub,2013-03-18 12:51:00,
2013-03-18 06:56:00,51.4,17.6,30.03,NE,40,1.0,5.0,26,0.00,,,0.00,meteohub,2013-03-18 12:56:00,
2013-03-18 07:01:00,50.7,18.0,30.03,NE,40,1.0,5.0,27,0.00,,,0.00,meteohub,2013-03-18 13:01:00,
2013-03-18 07:07:00,50.5,18.7,30.03,NE,40,0.0,4.0,28,0.00,,,0.00,meteohub,2013-03-18 13:07:00,
2013-03-18 07:12:00,50.5,18.7,30.04,NE,40,0.0,4.0,28,0.00,,,0.00,meteohub,2013-03-18 13:12:00,
2013-03-18 07:17:00,50.4,18.5,30.04,NE,40,0.0,3.0,28,0.00,,,0.00,meteohub,2013-03-18 13:17:00,
2013-03-18 07:22:00,50.4,18.5,30.04,NE,40,0.0,2.0,28,0.00,,,0.00,meteohub,2013-03-18 13:22:00,
2013-03-18 07:27:00,50.4,19.2,30.04,NE,40,0.0,0.0,29,0.00,,,0.00,meteohub,2013-03-18 13:27:00,
2013-03-18 07:33:00,50.0,19.0,30.04,NE,40,0.0,0.0,29,0.00,,,0.00,meteohub,2013-03-18 13:33:00,
2013-03-18 07:38:00,50.2,19.2,30.04,NE,40,0.0,0.0,29,0.00,,,0.00,meteohub,2013-03-18 13:38:00,
2013-03-18 07:43:00,50.5,19.4,30.04,NE,40,2.0,2.0,29,0.00,,,0.00,meteohub,2013-03-18 13:43:00,
2013-03-18 07:48:00,52.7,18.7,30.05,North,0,0.0,1.0,26,0.00,,,0.00,meteohub,2013-03-18 13:48:00,
2013-03-18 07:53:00,52.9,18.9,30.05,North,0,0.0,7.0,26,0.00,,,0.00,meteohub,2013-03-18 13:53:00,
2013-03-18 07:59:00,52.5,19.4,30.05,North,0,0.0,7.0,27,0.00,,,0.00,meteohub,2013-03-18 13:59:00,
2013-03-18 08:05:00,53.1,19.0,30.06,NW,309,0.0,5.0,26,0.00,,,0.00,meteohub,2013-03-18 14:05:00,
2013-03-18 08:10:00,53.8,19.8,30.06,NW,309,1.0,3.0,26,0.00,,,0.00,meteohub,2013-03-18 14:10:00,
2013-03-18 08:15:00,54.9,19.8,30.06,NW,309,0.0,3.0,25,0.00,,,0.00,meteohub,2013-03-18 14:15:00,
2013-03-18 08:20:00,55.2,19.0,30.06,NW,309,0.0,3.0,24,0.00,,,0.00,meteohub,2013-03-18 14:20:00,
2013-03-18 08:25:00,56.3,19.9,30.06,NW,310,0.0,2.0,24,0.00,,,0.00,meteohub,2013-03-18 14:25:00,
2013-03-18 08:30:00,57.4,18.9,30.07,NW,310,0.0,2.0,22,0.00,,,0.00,meteohub,2013-03-18 14:30:00,
2013-03-18 08:36:00,57.4,19.9,30.07,NW,310,0.0,2.0,23,0.00,,,0.00,meteohub,2013-03-18 14:36:00,
2013-03-18 08:41:00,57.4,19.9,30.08,NW,310,0.0,2.0,23,0.00,,,0.00,meteohub,2013-03-18 14:41:00,
2013-03-18 08:47:00,57.4,18.9,30.08,NW,310,0.0,2.0,22,0.00,,,0.00,meteohub,2013-03-18 14:47:00,
2013-03-18 08:53:00,57.9,19.2,30.08,NW,310,0.0,2.0,22,0.00,,,0.00,meteohub,2013-03-18 14:53:00,
2013-03-18 08:58:00,58.5,19.8,30.08,NW,310,0.0,1.0,22,0.00,,,0.00,meteohub,2013-03-18 14:58:00,
2013-03-18 09:03:00,59.4,19.4,30.09,NW,310,1.0,2.0,21,0.00,,,0.00,meteohub,2013-03-18 15:03:00,
2013-03-18 09:08:00,60.3,20.1,30.09,ESE,105,3.0,3.0,21,0.00,,,0.00,meteohub,2013-03-18 15:08:00,
2013-03-18 09:14:00,60.4,20.3,30.09,ESE,104,2.0,4.0,21,0.00,,,0.00,meteohub,2013-03-18 15:14:00,
2013-03-18 09:19:00,60.8,20.7,30.09,ESE,104,3.0,5.0,21,0.00,,,0.00,meteohub,2013-03-18 15:19:00,
2013-03-18 09:24:00,61.0,19.6,30.09,ESE,104,0.0,5.0,20,0.00,,,0.00,meteohub,2013-03-18 15:24:00,
2013-03-18 09:30:00,61.3,19.9,30.09,SE,144,5.0,5.0,20,0.00,,,0.00,meteohub,2013-03-18 15:30:00,
2013-03-18 09:35:00,62.1,20.5,30.09,SSW,205,0.0,3.0,20,0.00,,,0.00,meteohub,2013-03-18 15:35:00,
2013-03-18 09:40:00,62.4,21.9,30.09,SSW,197,0.0,5.0,21,0.00,,,0.00,meteohub,2013-03-18 15:40:00,
2013-03-18 09:46:00,63.0,21.2,30.09,SSW,197,0.0,4.0,20,0.00,,,0.00,meteohub,2013-03-18 15:46:00,
2013-03-18 09:51:00,63.0,21.2,30.10,East,83,2.0,5.0,20,0.00,,,0.00,meteohub,2013-03-18 15:51:00,
2013-03-18 09:56:00,62.6,22.1,30.10,ENE,75,3.0,6.0,21,0.00,,,0.00,meteohub,2013-03-18 15:56:00,
2013-03-18 10:01:00,62.8,22.3,30.10,East,86,6.0,7.0,21,0.00,,,0.00,meteohub,2013-03-18 16:01:00,
2013-03-18 10:06:00,63.1,22.6,30.10,ENE,69,3.0,8.0,21,0.00,,,0.00,meteohub,2013-03-18 16:06:00,
2013-03-18 10:11:00,63.5,21.7,30.10,ENE,69,3.0,8.0,20,0.00,,,0.00,meteohub,2013-03-18 16:11:00,
2013-03-18 10:16:00,64.0,22.1,30.10,ENE,69,2.0,8.0,20,0.00,,,0.00,meteohub,2013-03-18 16:16:00,
2013-03-18 10:21:00,64.0,22.1,30.10,ENE,69,0.0,4.0,20,0.00,,,0.00,meteohub,2013-03-18 16:21:00,
2013-03-18 10:26:00,64.2,21.0,30.10,ENE,69,0.0,3.0,19,0.00,,,0.00,meteohub,2013-03-18 16:26:00,
2013-03-18 10:31:00,64.4,21.2,30.10,ENE,69,0.0,4.0,19,0.00,,,0.00,meteohub,2013-03-18 16:31:00,
2013-03-18 10:37:00,64.8,21.6,30.10,ENE,69,2.0,4.0,19,0.00,,,0.00,meteohub,2013-03-18 16:37:00,
2013-03-18 10:42:00,65.3,21.9,30.10,West,269,7.0,7.0,19,0.00,,,0.00,meteohub,2013-03-18 16:42:00,
2013-03-18 10:47:00,65.8,22.5,30.10,WNW,301,6.0,9.0,19,0.00,,,0.00,meteohub,2013-03-18 16:47:00,
2013-03-18 10:52:00,66.0,22.6,30.10,West,259,2.0,9.0,19,0.00,,,0.00,meteohub,2013-03-18 16:52:00,
2013-03-18 10:57:00,66.6,21.7,30.09,WSW,254,1.0,9.0,18,0.00,,,0.00,meteohub,2013-03-18 16:57:00,
2013-03-18 11:02:00,66.6,21.7,30.10,WSW,254,0.0,9.0,18,0.00,,,0.00,meteohub,2013-03-18 17:02:00,
2013-03-18 11:07:00,66.9,22.1,30.10,SSW,213,5.0,5.0,18,0.00,,,0.00,meteohub,2013-03-18 17:07:00,
2013-03-18 11:12:00,68.0,21.6,30.09,WNW,300,11.0,11.0,17,0.00,,,0.00,meteohub,2013-03-18 17:12:00,
2013-03-18 11:17:00,68.4,21.9,30.09,West,271,10.0,13.0,17,0.00,,,0.00,meteohub,2013-03-18 17:17:00,
2013-03-18 11:22:00,68.5,21.9,30.10,West,276,9.0,14.0,17,0.00,,,0.00,meteohub,2013-03-18 17:22:00,
2013-03-18 11:28:00,69.3,21.2,30.09,West,275,6.0,15.0,16,0.00,,,0.00,meteohub,2013-03-18 17:28:00,
2013-03-18 11:33:00,69.6,19.9,30.09,West,271,12.0,15.0,15,0.00,,,0.00,meteohub,2013-03-18 17:33:00,
2013-03-18 11:39:00,70.2,20.3,30.09,WNW,292,10.0,15.0,15,0.00,,,0.00,meteohub,2013-03-18 17:39:00,
2013-03-18 11:44:00,70.3,20.5,30.09,WNW,295,10.0,16.0,15,0.00,,,0.00,meteohub,2013-03-18 17:44:00,
2013-03-18 11:49:00,70.5,20.7,30.09,WSW,254,10.0,16.0,15,0.00,,,0.00,meteohub,2013-03-18 17:49:00,
2013-03-18 11:54:00,70.7,19.2,30.09,West,266,6.0,15.0,14,0.00,,,0.00,meteohub,2013-03-18 17:54:00,
2013-03-18 12:01:00,71.2,19.6,30.09,NW,304,7.0,16.0,14,0.00,,,0.00,meteohub,2013-03-18 18:01:00,
2013-03-18 12:06:00,71.2,19.6,30.09,WNW,292,10.0,16.0,14,0.00,,,0.00,meteohub,2013-03-18 18:06:00,
2013-03-18 12:12:00,70.9,19.2,30.08,SW,230,4.0,16.0,14,0.00,,,0.00,meteohub,2013-03-18 18:12:00,
2013-03-18 12:17:00,70.9,19.2,30.08,NW,308,9.0,15.0,14,0.00,,,0.00,meteohub,2013-03-18 18:17:00,
2013-03-18 12:22:00,71.2,16.0,30.08,WNW,294,9.0,15.0,12,0.00,,,0.00,meteohub,2013-03-18 18:22:00,
2013-03-18 12:27:00,71.6,16.3,30.08,WNW,291,9.0,14.0,12,0.00,,,0.00,meteohub,2013-03-18 18:27:00,
2013-03-18 12:32:00,72.0,16.5,30.08,NW,310,9.0,14.0,12,0.00,,,0.00,meteohub,2013-03-18 18:32:00,
2013-03-18 12:37:00,72.3,16.9,30.08,West,271,6.0,15.0,12,0.00,,,0.00,meteohub,2013-03-18 18:37:00,
2013-03-18 12:43:00,72.3,14.9,30.07,North,0,8.0,16.0,11,0.00,,,0.00,meteohub,2013-03-18 18:43:00,
2013-03-18 12:48:00,72.3,14.9,30.07,West,259,9.0,16.0,11,0.00,,,0.00,meteohub,2013-03-18 18:48:00,
2013-03-18 12:54:00,72.7,15.1,30.07,WNW,300,7.0,16.0,11,0.00,,,0.00,meteohub,2013-03-18 18:54:00,
2013-03-18 12:59:00,72.1,12.6,30.06,NNW,332,11.0,15.0,10,0.00,,,0.00,meteohub,2013-03-18 18:59:00,
2013-03-18 13:04:00,72.7,12.9,30.06,NW,320,8.0,16.0,10,0.00,,,0.00,meteohub,2013-03-18 19:04:00,
2013-03-18 13:09:00,73.6,13.6,30.06,WNW,292,8.0,17.0,10,0.00,,,0.00,meteohub,2013-03-18 19:09:00,
2013-03-18 13:16:00,73.8,16.0,30.06,NW,305,5.0,17.0,11,0.00,,,0.00,meteohub,2013-03-18 19:16:00,
2013-03-18 13:21:00,73.6,13.6,30.06,WSW,238,6.0,17.0,10,0.00,,,0.00,meteohub,2013-03-18 19:21:00,
2013-03-18 13:27:00,73.9,16.2,30.06,WSW,257,10.0,17.0,11,0.00,,,0.00,meteohub,2013-03-18 19:27:00,
2013-03-18 13:32:00,74.1,14.0,30.05,West,261,10.0,17.0,10,0.00,,,0.00,meteohub,2013-03-18 19:32:00,
2013-03-18 13:37:00,74.1,14.0,30.05,WNW,301,6.0,17.0,10,0.00,,,0.00,meteohub,2013-03-18 19:37:00,
2013-03-18 13:42:00,73.8,13.8,30.05,West,260,5.0,16.0,10,0.00,,,0.00,meteohub,2013-03-18 19:42:00,
2013-03-18 13:47:00,74.5,14.4,30.05,West,275,11.0,16.0,10,0.00,,,0.00,meteohub,2013-03-18 19:47:00,
2013-03-18 13:53:00,75.6,15.1,30.04,West,278,11.0,18.0,10,0.00,,,0.00,meteohub,2013-03-18 19:53:00,
2013-03-18 13:58:00,75.6,12.7,30.04,NW,317,14.0,18.0,9,0.00,,,0.00,meteohub,2013-03-18 19:58:00,
2013-03-18 14:04:00,75.9,13.1,30.04,West,277,12.0,19.0,9,0.00,,,0.00,meteohub,2013-03-18 20:04:00,
2013-03-18 14:09:00,76.3,13.3,30.03,WSW,240,8.0,19.0,9,0.00,,,0.00,meteohub,2013-03-18 20:09:00,
2013-03-18 14:16:00,75.7,12.9,30.03,NW,306,7.0,20.0,9,0.00,,,0.00,meteohub,2013-03-18 20:16:00,
2013-03-18 14:21:00,76.5,7.9,30.03,WSW,241,10.0,22.0,7,0.00,,,0.00,meteohub,2013-03-18 20:21:00,
2013-03-18 14:26:00,76.5,4.5,30.03,NW,315,5.0,22.0,6,0.00,,,0.00,meteohub,2013-03-18 20:26:00,
2013-03-18 14:31:00,75.6,7.2,30.02,West,269,15.0,22.0,7,0.00,,,0.00,meteohub,2013-03-18 20:31:00,
2013-03-18 14:36:00,75.6,12.7,30.02,WNW,291,10.0,20.0,9,0.00,,,0.00,meteohub,2013-03-18 20:36:00,
2013-03-18 14:41:00,75.6,12.7,30.02,WSW,242,11.0,19.0,9,0.00,,,0.00,meteohub,2013-03-18 20:41:00,
2013-03-18 14:47:00,76.6,13.6,30.01,SW,235,10.0,19.0,9,0.00,,,0.00,meteohub,2013-03-18 20:47:00,
2013-03-18 14:52:00,76.6,13.6,30.01,West,280,5.0,19.0,9,0.00,,,0.00,meteohub,2013-03-18 20:52:00,
2013-03-18 14:57:00,77.0,13.8,30.01,SSW,202,12.0,19.0,9,0.00,,,0.00,meteohub,2013-03-18 20:57:00,
2013-03-18 15:02:00,77.7,14.4,30.01,WSW,244,12.0,18.0,9,0.00,,,0.00,meteohub,2013-03-18 21:02:00,
2013-03-18 15:07:00,77.2,14.0,30.01,West,269,10.0,18.0,9,0.00,,,0.00,meteohub,2013-03-18 21:07:00,
2013-03-18 15:12:00,77.0,13.8,30.01,WSW,248,10.0,18.0,9,0.00,,,0.00,meteohub,2013-03-18 21:12:00,
2013-03-18 15:17:00,77.0,13.8,30.01,WNW,294,6.0,18.0,9,0.00,,,0.00,meteohub,2013-03-18 21:17:00,
2013-03-18 15:22:00,76.6,16.0,30.01,SW,226,6.0,17.0,10,0.00,,,0.00,meteohub,2013-03-18 21:22:00,
2013-03-18 15:27:00,77.4,14.2,30.00,WSW,248,13.0,16.0,9,0.00,,,0.00,meteohub,2013-03-18 21:27:00,
2013-03-18 15:32:00,77.7,11.7,30.00,WSW,238,11.0,16.0,8,0.00,,,0.00,meteohub,2013-03-18 21:32:00,
2013-03-18 15:37:00,77.7,11.7,30.00,SW,225,9.0,19.0,8,0.00,,,0.00,meteohub,2013-03-18 21:37:00,
2013-03-18 15:42:00,78.1,12.0,30.00,WSW,244,6.0,19.0,8,0.00,,,0.00,meteohub,2013-03-18 21:42:00,
2013-03-18 15:47:00,77.4,11.5,30.00,WSW,246,5.0,17.0,8,0.00,,,0.00,meteohub,2013-03-18 21:47:00,
2013-03-18 15:52:00,77.5,11.7,29.99,WSW,255,18.0,18.0,8,0.00,,,0.00,meteohub,2013-03-18 21:52:00,
2013-03-18 15:57:00,77.7,11.7,29.99,West,273,9.0,22.0,8,0.00,,,0.00,meteohub,2013-03-18 21:57:00,
2013-03-18 16:03:00,78.1,12.0,29.99,West,271,10.0,22.0,8,0.00,,,0.00,meteohub,2013-03-18 22:03:00,
2013-03-18 16:08:00,77.5,11.7,29.99,West,277,8.0,22.0,8,0.00,,,0.00,meteohub,2013-03-18 22:08:00,
2013-03-18 16:13:00,77.9,14.5,29.99,SW,235,11.0,18.0,9,0.00,,,0.00,meteohub,2013-03-18 22:13:00,
2013-03-18 16:18:00,77.7,11.7,29.99,SW,232,10.0,17.0,8,0.00,,,0.00,meteohub,2013-03-18 22:18:00,
2013-03-18 16:23:00,77.5,11.7,29.99,SW,231,10.0,21.0,8,0.00,,,0.00,meteohub,2013-03-18 22:23:00,
2013-03-18 16:28:00,77.5,11.7,29.99,West,267,20.0,21.0,8,0.00,,,0.00,meteohub,2013-03-18 22:28:00,
2013-03-18 16:33:00,77.5,11.7,29.99,West,270,8.0,20.0,8,0.00,,,0.00,meteohub,2013-03-18 22:33:00,
2013-03-18 16:38:00,77.5,11.7,29.99,West,262,10.0,20.0,8,0.00,,,0.00,meteohub,2013-03-18 22:38:00,
2013-03-18 16:43:00,77.5,11.7,29.99,WSW,246,11.0,20.0,8,0.00,,,0.00,meteohub,2013-03-18 22:43:00,
2013-03-18 16:48:00,77.4,11.5,29.99,NW,313,7.0,16.0,8,0.00,,,0.00,meteohub,2013-03-18 22:48:00,
2013-03-18 16:53:00,77.5,11.7,29.99,WSW,237,7.0,15.0,8,0.00,,,0.00,meteohub,2013-03-18 22:53:00,
2013-03-18 16:58:00,77.7,11.7,29.99,WSW,238,9.0,17.0,8,0.00,,,0.00,meteohub,2013-03-18 22:58:00,
2013-03-18 17:04:00,77.5,11.7,29.99,West,261,13.0,17.0,8,0.00,,,0.00,meteohub,2013-03-18 23:04:00,
2013-03-18 17:09:00,77.2,11.3,29.99,West,263,10.0,22.0,8,0.00,,,0.00,meteohub,2013-03-18 23:09:00,
2013-03-18 17:14:00,76.8,11.1,29.98,WNW,302,8.0,22.0,8,0.00,,,0.00,meteohub,2013-03-18 23:14:00,
2013-03-18 17:19:00,76.8,13.6,29.99,WNW,283,9.0,20.0,9,0.00,,,0.00,meteohub,2013-03-18 23:19:00,
2013-03-18 17:24:00,76.8,13.6,29.98,SW,228,12.0,20.0,9,0.00,,,0.00,meteohub,2013-03-18 23:24:00,
2013-03-18 17:29:00,76.8,13.6,29.99,SW,233,16.0,16.0,9,0.00,,,0.00,meteohub,2013-03-18 23:29:00,
2013-03-18 17:34:00,76.6,13.6,29.99,West,273,9.0,20.0,9,0.00,,,0.00,meteohub,2013-03-18 23:34:00,
2013-03-18 17:39:00,76.3,13.3,29.98,SW,235,6.0,20.0,9,0.00,,,0.00,meteohub,2013-03-18 23:39:00,
2013-03-18 17:44:00,76.5,13.5,29.98,WSW,252,6.0,20.0,9,0.00,,,0.00,meteohub,2013-03-18 23:44:00,
2013-03-18 17:49:00,76.6,13.6,29.98,WSW,249,14.0,20.0,9,0.00,,,0.00,meteohub,2013-03-18 23:49:00,
2013-03-18 17:54:00,76.5,13.5,29.98,WSW,251,8.0,19.0,9,0.00,,,0.00,meteohub,2013-03-18 23:54:00,
2013-03-18 17:59:00,76.3,15.6,29.98,WNW,283,12.0,19.0,10,0.00,,,0.00,meteohub,2013-03-18 23:59:00,
2013-03-18 18:05:00,76.1,13.1,29.98,West,274,6.0,19.0,9,0.00,,,0.00,meteohub,2013-03-19 00:05:00,
2013-03-18 18:10:00,75.9,13.1,29.98,West,259,10.0,24.0,9,0.00,,,0.00,meteohub,2013-03-19 00:10:00,
2013-03-18 18:16:00,76.1,13.1,29.98,West,267,7.0,23.0,9,0.00,,,0.00,meteohub,2013-03-19 00:16:00,
2013-03-18 18:21:00,75.7,12.9,29.98,WSW,248,10.0,18.0,9,0.00,,,0.00,meteohub,2013-03-19 00:21:00,
2013-03-18 18:26:00,75.7,12.9,29.98,WSW,249,11.0,20.0,9,0.00,,,0.00,meteohub,2013-03-19 00:26:00,
2013-03-18 18:31:00,75.6,12.7,29.98,SW,234,8.0,20.0,9,0.00,,,0.00,meteohub,2013-03-19 00:31:00,
2013-03-18 18:36:00,75.4,12.6,29.98,West,279,6.0,17.0,9,0.00,,,0.00,meteohub,2013-03-19 00:36:00,
2013-03-18 18:42:00,75.0,12.4,29.98,WSW,252,10.0,18.0,9,0.00,,,0.00,meteohub,2013-03-19 00:42:00,
2013-03-18 18:47:00,74.8,12.2,29.98,WSW,247,10.0,18.0,9,0.00,,,0.00,meteohub,2013-03-19 00:47:00,
2013-03-18 18:52:00,74.7,14.5,29.98,West,281,8.0,18.0,10,0.00,,,0.00,meteohub,2013-03-19 00:52:00,
2013-03-18 18:58:00,74.3,14.2,29.98,WSW,250,5.0,16.0,10,0.00,,,0.00,meteohub,2013-03-19 00:58:00,
2013-03-18 19:03:00,74.1,14.0,29.98,West,261,10.0,16.0,10,0.00,,,0.00,meteohub,2013-03-19 01:03:00,
2013-03-18 19:08:00,73.8,11.5,29.98,West,275,10.0,16.0,9,0.00,,,0.00,meteohub,2013-03-19 01:08:00,
2013-03-18 19:13:00,73.6,13.6,29.98,West,266,7.0,14.0,10,0.00,,,0.00,meteohub,2013-03-19 01:13:00,
2013-03-18 19:18:00,73.0,13.3,29.98,WSW,244,7.0,13.0,10,0.00,,,0.00,meteohub,2013-03-19 01:18:00,
2013-03-18 19:23:00,72.9,13.1,29.99,SW,234,6.0,13.0,10,0.00,,,0.00,meteohub,2013-03-19 01:23:00,
2013-03-18 19:28:00,72.1,12.6,29.99,WSW,252,2.0,12.0,10,0.00,,,0.00,meteohub,2013-03-19 01:28:00,
2013-03-18 19:34:00,71.8,12.2,29.99,WSW,248,3.0,11.0,10,0.00,,,0.00,meteohub,2013-03-19 01:34:00,
2013-03-18 19:39:00,71.2,11.8,29.99,WSW,250,3.0,9.0,10,0.00,,,0.00,meteohub,2013-03-19 01:39:00,
2013-03-18 19:44:00,70.9,11.7,29.99,West,271,5.0,9.0,10,0.00,,,0.00,meteohub,2013-03-19 01:44:00,
2013-03-18 19:49:00,70.3,11.1,29.99,West,271,3.0,9.0,10,0.00,,,0.00,meteohub,2013-03-19 01:49:00,
2013-03-18 19:54:00,69.8,12.9,29.99,West,267,4.0,7.0,11,0.00,,,0.00,meteohub,2013-03-19 01:54:00,
2013-03-18 20:00:00,69.3,12.6,29.99,West,263,3.0,6.0,11,0.00,,,0.00,meteohub,2013-03-19 02:00:00,
2013-03-18 20:05:00,69.1,12.4,29.99,West,274,6.0,6.0,11,0.00,,,0.00,meteohub,2013-03-19 02:05:00,
2013-03-18 20:10:00,68.7,12.0,29.99,West,263,5.0,9.0,11,0.00,,,0.00,meteohub,2013-03-19 02:10:00,
2013-03-18 20:16:00,68.5,11.8,30.00,West,265,4.0,9.0,11,0.00,,,0.00,meteohub,2013-03-19 02:16:00,
2013-03-18 20:21:00,68.2,11.7,30.00,West,266,3.0,8.0,11,0.00,,,0.00,meteohub,2013-03-19 02:21:00,
2013-03-18 20:27:00,67.6,11.3,30.00,WSW,253,2.0,8.0,11,0.00,,,0.00,meteohub,2013-03-19 02:27:00,
2013-03-18 20:32:00,66.9,10.8,30.01,West,259,3.0,8.0,11,0.00,,,0.00,meteohub,2013-03-19 02:32:00,
2013-03-18 20:37:00,65.8,11.8,30.01,SW,224,3.0,8.0,12,0.00,,,0.00,meteohub,2013-03-19 02:37:00,
2013-03-18 20:42:00,64.6,14.4,30.01,SW,234,3.0,6.0,14,0.00,,,0.00,meteohub,2013-03-19 02:42:00,
2013-03-18 20:47:00,64.2,15.6,30.01,WSW,237,4.0,7.0,15,0.00,,,0.00,meteohub,2013-03-19 02:47:00,
2013-03-18 20:52:00,64.9,14.5,30.01,West,267,5.0,8.0,14,0.00,,,0.00,meteohub,2013-03-19 02:52:00,
2013-03-18 20:58:00,65.7,13.5,30.01,WSW,257,6.0,10.0,13,0.00,,,0.00,meteohub,2013-03-19 02:58:00,
2013-03-18 21:04:00,65.8,11.8,30.02,West,259,6.0,10.0,12,0.00,,,0.00,meteohub,2013-03-19 03:04:00,
2013-03-18 21:09:00,65.8,9.9,30.01,West,273,3.0,10.0,11,0.00,,,0.00,meteohub,2013-03-19 03:09:00,
2013-03-18 21:14:00,65.8,9.9,30.02,WSW,241,8.0,10.0,11,0.00,,,0.00,meteohub,2013-03-19 03:14:00,
2013-03-18 21:19:00,65.7,9.7,30.02,WSW,254,4.0,10.0,11,0.00,,,0.00,meteohub,2013-03-19 03:19:00,
2013-03-18 21:24:00,65.7,9.7,30.02,West,264,8.0,9.0,11,0.00,,,0.00,meteohub,2013-03-19 03:24:00,
2013-03-18 21:29:00,65.8,7.7,30.02,WSW,254,6.0,12.0,10,0.00,,,0.00,meteohub,2013-03-19 03:29:00,
2013-03-18 21:34:00,65.7,7.5,30.02,WSW,250,4.0,12.0,10,0.00,,,0.00,meteohub,2013-03-19 03:34:00,
2013-03-18 21:39:00,65.3,7.3,30.02,WSW,252,8.0,12.0,10,0.00,,,0.00,meteohub,2013-03-19 03:39:00,
2013-03-18 21:44:00,65.1,7.2,30.02,WSW,242,6.0,11.0,10,0.00,,,0.00,meteohub,2013-03-19 03:44:00,
2013-03-18 21:49:00,64.9,9.1,30.02,SW,221,5.0,9.0,11,0.00,,,0.00,meteohub,2013-03-19 03:49:00,
2013-03-18 21:54:00,64.8,9.0,30.02,WSW,246,7.0,9.0,11,0.00,,,0.00,meteohub,2013-03-19 03:54:00,
2013-03-18 22:00:00,64.8,9.0,30.02,WSW,248,4.0,10.0,11,0.00,,,0.00,meteohub,2013-03-19 04:00:00,
2013-03-18 22:01:00,64.8,9.0,30.02,SW,236,3.0,10.0,11,0.00,,,0.00,meteohub,2013-03-19 04:01:00,
2013-03-18 22:02:00,64.8,9.0,30.02,WSW,238,4.0,10.0,11,0.00,,,0.00,meteohub,2013-03-19 04:02:00,
2013-03-18 22:07:00,63.9,8.2,30.02,SW,227,3.0,10.0,11,0.00,,,0.00,meteohub,2013-03-19 04:07:00,
2013-03-18 22:09:00,63.3,7.9,30.02,WSW,244,5.0,10.0,11,0.00,,,0.00,meteohub,2013-03-19 04:09:00,
2013-03-18 22:16:00,62.6,9.3,30.02,WSW,251,5.0,8.0,12,0.00,,,0.00,meteohub,2013-03-19 04:16:00,
2013-03-18 22:21:00,62.1,8.8,30.02,WSW,248,4.0,9.0,12,0.00,,,0.00,meteohub,2013-03-19 04:21:00,
2013-03-18 22:26:00,61.9,10.4,30.02,WSW,245,6.0,9.0,13,0.00,,,0.00,meteohub,2013-03-19 04:26:00,
2013-03-18 22:31:00,61.5,10.2,30.02,SW,225,3.0,9.0,13,0.00,,,0.00,meteohub,2013-03-19 04:31:00,
2013-03-18 22:36:00,61.2,9.9,30.03,SW,226,3.0,9.0,13,0.00,,,0.00,meteohub,2013-03-19 04:36:00,
2013-03-18 22:42:00,60.1,9.1,30.03,WSW,242,5.0,9.0,13,0.00,,,0.00,meteohub,2013-03-19 04:42:00,
2013-03-18 22:47:00,59.7,10.4,30.03,WSW,247,2.0,10.0,14,0.00,,,0.00,meteohub,2013-03-19 04:47:00,
2013-03-18 22:52:00,59.5,10.2,30.03,WSW,247,0.0,10.0,14,0.00,,,0.00,meteohub,2013-03-19 04:52:00,
2013-03-18 22:57:00,58.3,12.2,30.04,SE,134,0.0,10.0,16,0.00,,,0.00,meteohub,2013-03-19 04:57:00,
2013-03-18 23:02:00,57.7,11.8,30.04,SE,134,1.0,4.0,16,0.00,,,0.00,meteohub,2013-03-19 05:02:00,
2013-03-18 23:07:00,57.4,11.5,30.04,SE,134,0.0,3.0,16,0.00,,,0.00,meteohub,2013-03-19 05:07:00,
2013-03-18 23:12:00,57.9,12.0,30.04,SE,134,0.0,4.0,16,0.00,,,0.00,meteohub,2013-03-19 05:12:00,
2013-03-18 23:17:00,57.9,12.0,30.04,SE,134,2.0,4.0,16,0.00,,,0.00,meteohub,2013-03-19 05:17:00,
2013-03-18 23:22:00,57.4,12.9,30.04,SE,134,0.0,4.0,17,0.00,,,0.00,meteohub,2013-03-19 05:22:00,
2013-03-18 23:27:00,57.0,11.3,30.04,SE,134,0.0,4.0,16,0.00,,,0.00,meteohub,2013-03-19 05:27:00,
2013-03-18 23:32:00,57.0,11.3,30.04,SE,134,0.0,3.0,16,0.00,,,0.00,meteohub,2013-03-19 05:32:00,
2013-03-18 23:37:00,56.8,12.4,30.04,SE,134,0.0,2.0,17,0.00,,,0.00,meteohub,2013-03-19 05:37:00,
2013-03-18 23:42:00,57.2,11.5,30.04,SE,130,2.0,4.0,16,0.00,,,0.00,meteohub,2013-03-19 05:42:00,
2013-03-18 23:47:00,58.8,9.7,30.04,West,263,1.0,4.0,14,0.00,,,0.00,meteohub,2013-03-19 05:47:00,
2013-03-18 23:52:00,59.4,10.2,30.04,WSW,254,1.0,7.0,14,0.00,,,0.00,meteohub,2013-03-19 05:52:00,
2013-03-18 23:57:00,57.9,10.6,30.04,South,187,7.0,7.0,15,0.00,,,0.00,meteohub,2013-03-19 05:57:00,